DW0494 Weather Reports


time (UTC)temp
C
wind
direction
speed
KPH
gust
KPH
rain 1hr
cm
rain 24hr
cm
rain mn
cm
humidity
%
barometer
mb
20260906064904 22 0 0.0 0.0 0.00 0.00 0.00 59 1019.5
20260906064404 22 0 0.0 0.0 0.00 0.00 0.00 59 1019.4
20260906063904 22 0 0.0 0.0 0.00 0.00 0.00 59 1019.5
20260906063404 22 0 0.0 0.0 0.00 0.00 0.00 59 1019.4
20260906062904 22 0 0.0 0.0 0.00 0.00 0.00 59 1019.4
20260906062404 22 0 0.0 0.0 0.00 0.00 0.00 59 1019.4
20260906060904 22 0 0.0 0.0 0.00 0.00 0.00 59 1019.2
20260906055904 22 0 0.0 0.0 0.00 0.00 0.00 59 1019.2
20260906055404 22 0 0.0 0.0 0.00 0.00 0.00 59 1019.2
20260906054904 22 0 0.0 0.0 0.00 0.00 0.00 59 1019.3
20260906054404 22 0 0.0 0.0 0.00 0.00 0.00 59 1019.2
20260906053904 22 0 0.0 0.0 0.00 0.00 0.00 59 1019.3
20260906053404 22 0 0.0 0.0 0.00 0.00 0.00 59 1019.3
20260906052904 22 0 0.0 0.0 0.00 0.00 0.00 59 1019.2
20260906052404 22 0 0.0 0.0 0.00 0.00 0.00 59 1019.1
20260906051904 22 0 0.0 0.0 0.00 0.00 0.00 59 1019.2
20260906051404 22 0 0.0 0.0 0.00 0.00 0.00 59 1019.3
20260906050904 22 0 0.0 0.0 0.00 0.00 0.00 59 1019.2
20260906050404 22 0 0.0 0.0 0.00 0.00 0.00 59 1019.1
20260906045904 22 0 0.0 0.0 0.00 0.00 0.00 59 1019.0
20260906045404 22 0 0.0 0.0 0.00 0.00 0.00 59 1019.0
20260906044404 22 0 0.0 0.0 0.00 0.00 0.00 59 1018.8
20260906042904 22 0 0.0 0.0 0.00 0.00 0.00 59 1018.6
20260906042403 22 0 0.0 0.0 0.00 0.00 0.00 59 1018.7
20260906041904 22 0 0.0 0.0 0.00 0.00 0.00 59 1018.6
20260906040903 22 0 0.0 0.0 0.00 0.00 0.00 59 1018.5
20260906040403 22 0 0.0 0.0 0.00 0.00 0.00 59 1018.5
20260906035404 22 0 0.0 0.0 0.00 0.00 0.00 59 1018.5
20260906034904 22 0 0.0 0.0 0.00 0.00 0.00 59 1018.4
20260906034403 22 0 0.0 0.0 0.00 0.00 0.00 59 1018.3
20260906033904 22 0 0.0 0.0 0.00 0.00 0.00 59 1018.3
20260906033404 22 52 0.0 1.6 0.00 0.00 0.00 59 1018.3
20260906032903 22 52 0.0 1.6 0.00 0.00 0.00 59 1018.3
20260906032404 22 55 0.0 3.2 0.00 0.00 0.00 59 1018.2
20260906031903 22 55 1.6 3.2 0.00 0.00 0.00 60 1018.2
20260906031403 22 54 1.6 3.2 0.00 0.00 0.00 60 1018.2
20260906030904 22 62 1.6 1.6 0.00 0.00 0.00 59 1018.3
20260906030403 22 63 0.0 1.6 0.00 0.00 0.00 59 1018.2
20260906025404 22 59 0.0 1.6 0.00 0.00 0.00 58 1018.1
20260906024903 22 59 0.0 1.6 0.00 0.00 0.00 56 1018.0
20260906024404 22 59 0.0 1.6 0.00 0.00 0.00 56 1018.0
20260906023903 22 59 0.0 1.6 0.00 0.00 0.00 55 1018.0
20260906022904 22 59 0.0 1.6 0.00 0.00 0.00 57 1017.9
20260906022404 22 59 0.0 0.0 0.00 0.00 0.00 56 1017.9
20260906021404 23 59 0.0 0.0 0.00 0.00 0.00 54 1018.0
20260906020904 23 59 0.0 1.6 0.00 0.00 0.00 55 1018.0
20260906020404 23 58 0.0 1.6 0.00 0.00 0.00 56 1018.0
20260906015904 23 59 0.0 1.6 0.00 0.00 0.00 57 1018.0
20260906014904 22 59 0.0 1.6 0.00 0.00 0.00 57 1018.1
20260906014404 22 59 0.0 1.6 0.00 0.00 0.00 57 1018.1
20260906013903 21 59 0.0 1.6 0.00 0.00 0.00 58 1018.1
20260906013403 22 59 0.0 1.6 0.00 0.00 0.00 58 1018.1
20260906012403 22 60 0.0 0.0 0.00 0.00 0.00 56 1018.0
20260906011904 22 60 0.0 1.6 0.00 0.00 0.00 56 1018.0
20260906011404 22 60 0.0 1.6 0.00 0.00 0.00 56 1018.0
20260906010904 21 60 0.0 1.6 0.00 0.00 0.00 58 1018.1
20260906005903 22 56 0.0 1.6 0.00 0.00 0.00 58 1018.0
20260906005403 22 56 0.0 1.6 0.00 0.00 0.00 56 1018.0
20260906004903 22 56 0.0 1.6 0.00 0.00 0.00 55 1018.0
20260906004403 22 56 1.6 1.6 0.00 0.00 0.00 56 1018.0
20260906003904 23 53 0.0 1.6 0.00 0.00 0.00 55 1018.0
20260906003404 23 53 1.6 3.2 0.00 0.00 0.00 54 1018.1
20260906002404 22 52 1.6 3.2 0.00 0.00 0.00 57 1017.9
20260906001904 23 49 0.0 1.6 0.00 0.00 0.00 55 1018.0
20260906001403 23 49 0.0 1.6 0.00 0.00 0.00 55 1018.1
20260906000903 23 49 1.6 3.2 0.00 0.00 0.00 52 1018.1
20260906000403 23 49 1.6 3.2 0.00 0.00 0.00 52 1018.1
20260905235403 23 49 1.6 4.8 0.00 0.00 0.00 53 1018.1
20260905234904 23 49 3.2 4.8 0.00 0.00 0.00 54 1018.0
20260905233904 23 46 0.0 1.6 0.00 0.00 0.00 56 1018.1
20260905233405 23 46 0.0 1.6 0.00 0.00 0.00 55 1018.3
20260905232904 24 46 1.6 1.6 0.00 0.00 0.00 53 1018.3
20260905231904 24 45 1.6 1.6 0.00 0.00 0.00 52 1018.3
20260905231404 23 45 1.6 1.6 0.00 0.00 0.00 53 1018.3
20260905230904 24 45 0.0 1.6 0.00 0.00 0.00 52 1018.3
20260905225903 24 45 1.6 3.2 0.00 0.00 0.00 51 1018.4
20260905225403 24 45 1.6 4.8 0.00 0.00 0.00 51 1018.4
20260905224903 24 46 1.6 4.8 0.00 0.00 0.00 52 1018.4
20260905224403 24 44 1.6 3.2 0.00 0.00 0.00 51 1018.5
20260905222903 25 49 1.6 4.8 0.00 0.00 0.00 50 1018.5
20260905222403 25 57 3.2 4.8 0.00 0.00 0.00 49 1018.5
20260905221903 25 48 3.2 4.8 0.00 0.00 0.00 49 1018.5
20260905221404 25 71 1.6 4.8 0.00 0.00 0.00 50 1018.5
20260905220904 25 45 3.2 4.8 0.00 0.00 0.00 50 1018.4
20260905220404 25 50 3.2 4.8 0.00 0.00 0.00 51 1018.4
20260905215903 25 49 3.2 4.8 0.00 0.00 0.00 51 1018.4
20260905215403 25 48 3.2 4.8 0.00 0.00 0.00 51 1018.4
20260905214903 25 54 3.2 4.8 0.00 0.00 0.00 51 1018.4
20260905214404 25 56 3.2 4.8 0.00 0.00 0.00 51 1018.5
20260905213903 25 52 3.2 4.8 0.00 0.00 0.00 51 1018.6
20260905213403 25 52 3.2 4.8 0.00 0.00 0.00 50 1018.7
20260905212404 25 62 3.2 4.8 0.00 0.00 0.00 50 1018.8
20260905211904 25 56 3.2 4.8 0.00 0.00 0.00 50 1018.7
20260905210903 25 54 3.2 4.8 0.00 0.00 0.00 50 1018.8
20260905210404 25 54 3.2 4.8 0.00 0.00 0.00 50 1018.8
20260905205903 25 50 3.2 4.8 0.00 0.00 0.00 50 1018.8
20260905205403 25 47 3.2 4.8 0.00 0.00 0.00 50 1018.9
20260905204904 25 64 3.2 4.8 0.00 0.00 0.00 50 1018.9
20260905204403 25 44 3.2 4.8 0.00 0.00 0.00 50 1018.9
20260905203903 25 56 1.6 3.2 0.00 0.00 0.00 50 1019.0
20260905203403 25 47 1.6 4.8 0.00 0.00 0.00 50 1018.9
20260905202903 25 41 1.6 4.8 0.00 0.00 0.00 51 1018.9
20260905202403 25 58 3.2 4.8 0.00 0.00 0.00 51 1018.9
20260905201903 25 57 3.2 4.8 0.00 0.00 0.00 51 1018.8
20260905201404 25 76 1.6 4.8 0.00 0.00 0.00 52 1018.8
20260905200904 25 54 3.2 4.8 0.00 0.00 0.00 52 1018.9
20260905200403 25 50 3.2 4.8 0.00 0.00 0.00 52 1018.9
20260905195904 25 49 3.2 4.8 0.00 0.00 0.00 53 1018.9
20260905195403 25 54 3.2 4.8 0.00 0.00 0.00 54 1018.9
20260905194904 25 51 3.2 4.8 0.00 0.00 0.00 54 1018.9
20260905194405 25 61 1.6 4.8 0.00 0.00 0.00 54 1019.0
20260905193404 25 54 3.2 4.8 0.00 0.00 0.00 55 1018.9
20260905192904 25 51 1.6 4.8 0.00 0.00 0.00 55 1019.0
20260905192404 25 56 3.2 4.8 0.00 0.00 0.00 56 1019.0
20260905191904 25 52 3.2 4.8 0.00 0.03 0.00 57 1019.0
20260905191403 25 66 3.2 4.8 0.00 0.13 0.00 56 1019.1
20260905190903 25 51 3.2 3.2 0.00 0.23 0.00 56 1019.0
20260905185403 25 42 1.6 3.2 0.00 0.25 0.00 54 1019.0
20260905184904 25 42 1.6 3.2 0.00 0.25 0.00 54 1019.1
20260905184403 25 47 1.6 3.2 0.00 0.25 0.00 54 1019.0
20260905183904 25 47 1.6 3.2 0.00 0.25 0.00 54 1018.9
20260905182904 26 46 0.0 3.2 0.00 0.25 0.00 53 1018.7
20260905182404 26 46 1.6 3.2 0.00 0.25 0.00 53 1018.7
20260905181903 26 42 1.6 3.2 0.00 0.25 0.00 54 1018.6
20260905180904 26 46 1.6 3.2 0.00 0.25 0.00 55 1018.5
20260905180404 26 50 1.6 3.2 0.00 0.25 0.00 55 1018.5
20260905175904 26 79 1.6 3.2 0.00 0.25 0.00 55 1018.5
20260905174904 26 89 1.6 3.2 0.00 0.25 0.00 54 1018.4
20260905174404 26 98 0.0 1.6 0.00 0.25 0.00 54 1018.5
20260905173904 26 99 0.0 1.6 0.00 0.25 0.00 53 1018.4
20260905173404 26 100 0.0 1.6 0.00 0.25 0.00 53 1018.3
20260905172903 26 100 0.0 1.6 0.00 0.25 0.00 53 1018.3
20260905172403 26 96 0.0 1.6 0.00 0.25 0.00 53 1018.3
20260905171904 27 96 0.0 1.6 0.00 0.25 0.00 53 1018.3
20260905171404 27 152 0.0 1.6 0.00 0.25 0.00 52 1018.3
20260905170903 27 155 0.0 0.0 0.00 0.25 0.00 52 1018.3
20260905170404 28 155 0.0 0.0 0.00 0.25 0.00 51 1018.2
20260905165403 29 155 0.0 3.2 0.00 0.25 0.00 47 1018.2
20260905164903 30 220 0.0 1.6 0.00 0.25 0.00 45 1018.2
20260905164403 30 129 0.0 4.8 0.00 0.25 0.00 45 1018.1
20260905163904 31 131 0.0 4.8 0.00 0.25 0.00 45 1018.0
20260905163403 31 151 0.0 4.8 0.00 0.25 0.00 44 1018.1
20260905161904 31 126 1.6 8.0 0.00 0.25 0.00 43 1018.1
20260905161403 32 201 3.2 8.0 0.00 0.25 0.00 41 1018.1
20260905160904 32 201 1.6 4.8 0.00 0.25 0.00 41 1018.1
20260905160404 32 207 0.0 4.8 0.00 0.25 0.00 41 1018.1
20260905155904 32 216 1.6 4.8 0.00 0.25 0.00 42 1018.1
20260905155403 32 198 3.2 4.8 0.00 0.25 0.00 42 1018.1
20260905154903 32 201 3.2 4.8 0.00 0.25 0.00 44 1018.1
20260905154403 32 197 1.6 8.0 0.00 0.25 0.00 46 1018.1
20260905153403 33 199 1.6 11.3 0.00 0.25 0.00 44 1018.1
20260905152903 33 215 1.6 11.3 0.00 0.25 0.00 43 1018.1
20260905151904 33 206 1.6 8.0 0.00 0.25 0.00 39 1018.0
20260905151404 33 213 1.6 4.8 0.00 0.25 0.00 39 1018.0
20260905150904 33 188 1.6 4.8 0.00 0.25 0.00 43 1018.0
20260905150404 33 200 1.6 4.8 0.00 0.25 0.00 39 1018.0
20260905145905 33 214 3.2 4.8 0.00 0.25 0.00 38 1018.0
20260905145403 33 209 0.0 4.8 0.00 0.25 0.00 38 1018.0
20260905144903 33 243 1.6 4.8 0.00 0.25 0.00 38 1018.0
20260905144404 33 236 3.2 9.7 0.00 0.25 0.00 39 1018.0
20260905143904 33 231 1.6 9.7 0.00 0.25 0.00 40 1018.0
20260905143404 33 208 3.2 9.7 0.00 0.25 0.00 41 1018.1
20260905142903 33 196 3.2 8.0 0.00 0.25 0.00 40 1018.2
20260905142403 33 219 1.6 8.0 0.00 0.25 0.00 40 1018.3
20260905141903 33 300 3.2 11.3 0.00 0.25 0.00 39 1018.3
20260905141404 33 214 3.2 11.3 0.00 0.25 0.00 40 1018.3
20260905140903 33 226 4.8 9.7 0.00 0.25 0.00 39 1018.3
20260905140404 33 294 1.6 4.8 0.00 0.25 0.00 39 1018.3
20260905134904 33 293 3.2 9.7 0.00 0.25 0.00 38 1018.4
20260905134404 33 234 1.6 9.7 0.00 0.25 0.00 37 1018.5
20260905133904 33 254 3.2 9.7 0.00 0.25 0.00 36 1018.5
20260905133404 33 235 3.2 9.7 0.00 0.25 0.00 36 1018.6
20260905132904 33 243 4.8 9.7 0.00 0.25 0.00 36 1018.7
20260905132404 33 236 3.2 9.7 0.00 0.25 0.00 36 1018.7
20260905131404 33 240 3.2 9.7 0.00 0.25 0.00 35 1018.9
20260905130903 33 219 3.2 12.9 0.00 0.25 0.00 35 1019.0
20260905130404 33 278 3.2 12.9 0.00 0.25 0.00 36 1019.1
20260905125903 33 226 1.6 11.3 0.00 0.25 0.00 34 1019.0
20260905124903 33 219 3.2 12.9 0.00 0.25 0.00 35 1019.2
20260905123904 33 230 3.2 12.9 0.00 0.25 0.00 35 1019.2
20260905123404 33 206 4.8 12.9 0.00 0.25 0.00 36 1019.3
20260905122904 33 216 4.8 12.9 0.00 0.25 0.00 37 1019.4
20260905122404 33 229 4.8 12.9 0.00 0.25 0.00 35 1019.4
20260905121403 33 216 3.2 12.9 0.00 0.25 0.00 36 1019.5
20260905120903 33 252 3.2 12.9 0.00 0.25 0.00 36 1019.5
20260905120403 33 235 6.4 14.5 0.00 0.25 0.00 37 1019.5
20260905115403 33 211 4.8 11.3 0.00 0.25 0.00 42 1019.6
20260905114903 33 234 4.8 11.3 0.00 0.25 0.00 39 1019.7
20260905114403 32 344 4.8 9.7 0.00 0.25 0.00 40 1019.7
20260905113903 33 249 4.8 9.7 0.00 0.25 0.00 39 1019.8
20260905113403 33 254 3.2 9.7 0.00 0.25 0.00 40 1019.8
20260905111903 32 215 3.2 11.3 0.00 0.25 0.00 39 1019.8
20260905111404 32 226 3.2 12.9 0.00 0.25 0.00 40 1019.8
20260905110903 32 230 3.2 12.9 0.00 0.25 0.00 40 1019.8
20260905110404 32 283 4.8 11.3 0.00 0.25 0.00 38 1019.9
20260905104904 32 278 3.2 12.9 0.00 0.25 0.00 41 1019.9
20260905104404 32 245 3.2 12.9 0.00 0.25 0.00 42 1020.1
20260905103904 32 227 4.8 12.9 0.00 0.25 0.00 41 1020.1
20260905103403 32 272 3.2 9.7 0.00 0.25 0.00 42 1020.1
20260905102903 32 215 3.2 9.7 0.00 0.25 0.00 41 1020.2
20260905102403 32 223 4.8 9.7 0.00 0.25 0.00 41 1020.2
20260905101910 32 243 3.2 12.9 0.00 0.25 0.00 42 1020.4
20260905101403 32 218 3.2 12.9 0.00 0.25 0.00 42 1020.4
20260905100903 32 221 1.6 12.9 0.00 0.25 0.00 44 1020.5
20260905100403 32 253 3.2 8.0 0.00 0.25 0.00 44 1020.6
20260905095903 32 219 3.2 9.7 0.00 0.25 0.00 43 1020.7
20260905095403 31 278 3.2 9.7 0.00 0.25 0.00 46 1020.7
20260905094903 31 240 3.2 12.9 0.00 0.25 0.00 46 1020.8
20260905094403 31 235 4.8 12.9 0.00 0.25 0.00 46 1020.8
20260905093904 31 240 3.2 9.7 0.00 0.25 0.00 46 1020.8
20260905093404 31 247 1.6 11.3 0.00 0.25 0.00 48 1020.8
20260905092903 31 219 4.8 11.3 0.00 0.25 0.00 48 1020.9
20260905092404 31 239 1.6 8.0 0.00 0.25 0.00 50 1020.8
20260905091403 31 292 3.2 11.3 0.00 0.25 0.00 50 1021.0
20260905090404 30 275 3.2 11.3 0.00 0.25 0.00 51 1021.0
20260905085403 30 281 1.6 9.7 0.00 0.25 0.00 53 1021.0
20260905084903 30 324 1.6 9.7 0.00 0.25 0.00 53 1021.0
20260905084403 30 206 1.6 8.0 0.00 0.25 0.00 52 1021.0
20260905083904 30 262 3.2 8.0 0.00 0.25 0.00 54 1021.0
20260905081904 30 282 1.6 8.0 0.00 0.25 0.00 58 1021.2
20260905080903 29 336 1.6 8.0 0.00 0.25 0.00 59 1021.2
20260905080404 28 25 3.2 8.0 0.00 0.25 0.00 59 1021.2
20260905075904 28 235 1.6 8.0 0.00 0.25 0.00 60 1021.2
20260905075404 21 0 0.0 0.0 0.00 0.25 0.00 75 1021.1
20260905074404 21 0 0.0 0.0 0.00 0.25 0.00 75 1021.1
20260905073403 21 0 0.0 0.0 0.00 0.25 0.00 75 1021.1
20260905072404 21 0 0.0 0.0 0.00 0.25 0.00 75 1021.1
20260905071903 21 0 0.0 0.0 0.00 0.25 0.00 75 1021.0
20260905071403 21 0 0.0 0.0 0.00 0.25 0.00 75 1021.1
20260905070903 21 0 0.0 0.0 0.00 0.25 0.00 75 1021.1
20260905070403 21 0 0.0 0.0 0.00 0.25 0.00 75 1021.0
20260905065903 21 0 0.0 0.0 0.00 0.25 0.00 75 1021.0